Regional Weather Roundup
Issued by NWS

Home | Current Version | Previous Version | Text Only | Print | Product List | Glossary Off
Versions: 1 2 3 4 5 6 7 8 9 10 11 12 13 14 15 16 17 18 19 20 21 22 23 24 25 26 27 28 29 30 31 32 33 34 35 36 37 38 39 40 41 42 43 44 45 46 47 48 49 50

000
ASUS45 KABQ 020701
RWRNM
WEATHER ROUNDUP FOR NEW MEXICO
NATIONAL WEATHER SERVICE ALBUQUERQUE NM
1200 AM MST MON MAR 02 2015

NOTE: "FAIR" MEANS FEW OR NO CLOUDS BELOW 12,000 FEET AGL WITH NO
       SIGNIFICANT WEATHER OR OBSTRUCTIONS TO VISION.

      THIS PRODUCT IS RELEASED AS TWO VERSIONS.  ONE VERSION NEAR
      THE TOP OF THE HOUR CONTAINING PRELIMINARY DATA FROM ALBUQUERQUE
      AND OTHER STATIONS.  A FINAL VERSION WITH ADDITIONAL DATA IS
      ISSUED ABOUT 10 MINUTES AFTER THE HOUR.

NMZ501-503-504-510>518-020800-
NORTHWEST PLATEAU/NORTHCENTRAL MOUNTAINS

CITY           SKY/WX    TMP DP  RH WIND       PRES   REMARKS
FARMINGTON     CLOUDY    37  35  92 E8        30.05F WCI  31
SANTA FE       PTCLDY    33  25  72 SE15G28   30.17S WCI  23
TAOS           PTCLDY    30  27  86 CALM      30.17R
ANGEL FIRE     FAIR      28  26  91 SE15      30.18R WCI  17

$$
NMZ402-403-502-505>509-020800-
WESTCENTRAL MOUNTAINS/SOUTHWEST MOUNTAINS

CITY           SKY/WX    TMP DP  RH WIND       PRES   REMARKS
GALLUP         CLEAR     38  34  85 CALM      30.08F
SILVER CITY    CLOUDY    54  25  32 W6        30.12F

$$
NMZ407-409-411-412-020800-
SOUTHERN DESERTS

CITY           SKY/WX    TMP DP  RH WIND       PRES   REMARKS
DEMING         CLOUDY    54  26  34 NW3       30.08S
HOLLOMAN AFB   MOCLDY    59  28  30 N16       30.07R
ALAMOGORDO     MOCLDY    59  25  27 S10       30.08F
T OR C         CLOUDY    56  24  29 S10       30.07F

$$
NMZ519>523-020800-
CENTRAL VALLEYS/CENTRAL HIGHLANDS

CITY           SKY/WX    TMP DP  RH WIND       PRES   REMARKS
ALBUQUERQUE    CLOUDY    49  28  44 CALM      30.10S
DOUBLE EAGLE   MOCLDY    41  34  76 NE7       30.12S
CLINES CORNERS FOG       27  26  96 E13       30.19F VSB 1/4 WCI  16
BELEN          FAIR      48  28  46 SE12      30.09F
SOCORRO        NOT AVBL

$$
NMZ524>526-539-540-020800-
SOUTHCENTRAL MOUNTAINS

CITY           SKY/WX    TMP DP  RH WIND       PRES   REMARKS
RUIDOSO        NOT AVBL

$$
NMZ527>531-020800-
NORTHEAST HIGHLANDS/NORTHEAST PLAINS

CITY           SKY/WX    TMP DP  RH WIND       PRES   REMARKS
LAS VEGAS      CLOUDY    24  23  96 S14       30.21F FOG     WCI  12
RATON          FOG       25  25 100 S15       30.21S VSB 1/2 WCI  13
CLAYTON        CLOUDY    23  21  92 S9        30.30R FOG     WCI  13

$$
NMZ532>537-020800-
EASTCENTRAL PLAINS

CITY           SKY/WX    TMP DP  RH WIND       PRES   REMARKS
TUCUMCARI      CLOUDY    29  27  92 E7        30.33F FOG     WCI  22
CANNON AFB     FRZ DRZL  28  28 100 E8        30.32R VSB 1   WCI  20
CLOVIS AIRPORT CLOUDY    28  28 100 E6        30.32F VSB 1   WCI  22

$$
NMZ028-029-538-020800-
SOUTHEAST PLAINS

CITY           SKY/WX    TMP DP  RH WIND       PRES   REMARKS
ROSWELL        CLOUDY    37  34  89 E7        30.29F FOG     WCI  32
ARTESIA        CLOUDY    36  36 100 SE10      30.31F FOG     WCI  28
CARLSBAD       CLOUDY    38  33  82 E9        30.30F WCI  31
HOBBS          CLOUDY    30  30 100 NE9       30.34R FOG     WCI  22


$$



USA.gov is the U.S. government's official web portal to all federal, state and local government web resources and services.